Weather Service Report


816 
ASUS43 KDMX 291707
RWRIA 

WEATHER ROUNDUP FOR IOWA
NATIONAL WEATHER SERVICE DES MOINES IA
1200 PM CDT SAT AUG 29 2015

NOTE: "FAIR" INDICATES FEW OR NO CLOUDS BELOW 12,000 FEET WITH NO
SIGNIFICANT WEATHER AND/OR OBSTRUCTIONS TO VISIBILITY.

* - THESE STATIONS ARE NOT NWS STATIONS...THUS NOT UNDER NWS
QUALITY CONTROL.  THEY ALSO DO NOT REPORT WEATHER SUCH 
AS PRECIPITATION OR FOG.  

IAZ001>003-012>014-020>022-031>034-043>046-291800-
   NORTHWEST IOWA
  
CITY           SKY/WX    TMP DP  RH WIND       PRES   REMARKS
CARROLL *      CLOUDY    63  63 100 N6        30.08S                  
CHEROKEE *     CLOUDY    63  61  94 CALM      30.10S                  
DENISON *      CLOUDY    64  61  88 N6        30.07R                  
LE MARS *      CLOUDY    61  59  94 CALM      30.11S                  
ORANGE CITY *  CLOUDY    63  59  88 CALM      30.10S                  
SHELDON *      CLOUDY    63  59  88 CALM      30.09S                  
SIOUX CITY     CLOUDY    65  58  78 NW3       30.09S                  
SPENCER        CLOUDY    63  58  83 CALM      30.09S                  
STORM LAKE *   CLOUDY    61  61 100 VRB5      30.10S                  
$$
 
IAZ055>058-069>071-079>083-090>094-291800-
   SOUTHWEST IOWA
  
CITY           SKY/WX    TMP DP  RH WIND       PRES   REMARKS
ATLANTIC *     CLOUDY    68  63  83 NE9       30.07R                  
AUDUBON *      CLOUDY    64  61  88 NE7       30.09R                  
CLARINDA *     CLOUDY    64  63  94 N8        30.08S                  
COUNCIL BLFS * PTSUNNY   63  61  94 N8        30.09R                  
CRESTON *      CLOUDY    68  63  83 N8        30.07S                  
HARLAN  *      CLOUDY    66 N/A N/A VRB5      30.11S                  
LAMONI         CLOUDY    72  66  81 N9        30.04R                  
RED OAK *      CLOUDY    64  63  94 N7G13     30.08R                  
SHENANDOAH *   CLOUDY    64  61  88 N7        30.08S                  
$$
 
IAZ047>049-059>061-072>074-084-291800-
   CENTRAL IOWA
  
CITY           SKY/WX    TMP DP  RH WIND       PRES   REMARKS
AMES           CLOUDY    69  63  81 N7        30.05S                  
ANKENY *       CLOUDY    68  64  88 N8        30.05R                  
CHARITON *     CLOUDY    68  64  88 N8        30.04S                  
DES MOINES     CLOUDY    69  62  78 NE7       30.04R                  
GRINNELL*      CLOUDY    70  64  83 NE8       30.04S                  
KNOXVILLE *    CLOUDY    68  64  88 VRB6      30.03R                  
MARSHALLTOWN   CLOUDY    69  64  84 NE9       30.04R                  
PELLA *        CLOUDY    70  68  94 N5        30.05R                  
PERRY *        CLOUDY    68  64  88 NE7       30.06S                  
$$
 
IAZ004>006-015-016-023>025-035-036-291800-
   NORTH CENTRAL IOWA
  
CITY           SKY/WX    TMP DP  RH WIND       PRES   REMARKS
ALGONA *       CLOUDY    61  59  94 NE3       30.09R                  
CLARION *      CLOUDY    66  63  88 NE6       30.06F                  
ESTHERVILLE    CLOUDY    61  59  93 CALM      30.09S                  
FORT DODGE *   CLOUDY    63  59  88 N7        30.08S                  
MASON CITY     CLOUDY    67  62  84 NE8       30.08S                  
FOREST CITY *  CLOUDY    63  61  94 N6        30.06F                  
IOWA FALLS *   CLOUDY    68  63  83 NE5       30.06S                  
$$

IAZ007>011-017>019-026>030-037>042-050>054-066-291800-
   NORTHEAST IOWA
  
CITY           SKY/WX    TMP DP  RH WIND       PRES   REMARKS
CEDAR RAPIDS   CLOUDY    71  67  87 N7        30.01R                  
CHARLES CITY * PTSUNNY   66  64  94 VRB3      30.06S                  
CLINTON *      CLOUDY    70  64  83 CALM      30.03S                  
DECORAH *      CLOUDY    66  63  88 NE7       30.05R                  
DUBUQUE        CLOUDY    70  65  84 NE8       30.02S                  
MONTICELLO *   CLOUDY    72  66  83 VRB6      30.00F                  
OELWEIN *        N/A     66  63  88 VRB6G12   30.05R                  
WATERLOO       CLOUDY    69  63  81 NE12      30.03S                  
$$
 
IAZ064-065-067-068-078-291800-
   EAST CENTRAL IOWA
  
CITY           SKY/WX    TMP DP  RH WIND       PRES   REMARKS
DAVENPORT      CLOUDY    71  67  87 S5        30.01F                  
IOWA CITY      CLOUDY    71  67  87 NE8       30.02R                  
MT. PLEASANT * CLOUDY    77  64  65 NW3       30.01S                  
MUSCATINE *    CLOUDY    73  66  78 CALM      30.00F                  
QUAD CITIES    CLOUDY    69  66  90 CALM      30.01S FOG              
$$
 
IAZ062-063-075>077-085>089-095>099-291800-
   SOUTHEAST IOWA
  
CITY           SKY/WX    TMP DP  RH WIND       PRES   REMARKS
BURLINGTON     CLOUDY    75  67  76 CALM      30.01R                  
FAIRFIELD *    CLOUDY    72  68  88 N5        30.02R                  
FORT MADISON * CLOUDY    73  68  83 CALM      30.02R                  
KEOKUK *       CLOUDY    73  66  78 W5        30.01R                  
OSKALOOSA *    CLOUDY    70  66  88 N6        30.03R                  
CENTERVILLE *  CLOUDY    72  68  88 N7        30.05R                  
OTTUMWA        CLOUDY    72  69  90 N8        30.01R                  
WASHINGTON *     N/A    N/A N/A N/A MISG        N/A                   
$$

ABBREVIATIONS USED IN REMARKS
   TC - TEMPERATURES IN CELSIUS
  WCI - WIND CHILL INDEX
   HX - HEAT INDEX
  VSB - VISIBILITY  
$$


Return to Home page


Western Regional Climate Center, wrcc@dri.edu